DW8425 Weather Reports


Display with metric or nautical units.
time (UTC)temp
F
wind
direction
speed
MPH
gust
MPH
rain 1hr
in
rain 24hr
in
rain mn
in
humidity
%
barometer
mb
20260901191509 72 161 10.0 16.0 0.00 0.00 0.00 38 1004.4
20260901190002 72 142 4.0 15.0 0.00 0.00 0.00 36 1004.4
20260901184606 71 148 7.0 17.0 0.00 0.00 0.00 39 1004.7
20260901183100 71 97 8.0 16.0 0.00 0.00 0.00 38 1004.9
20260901181555 70 112 3.0 14.0 0.00 0.00 0.00 39 1005.1
20260901180051 69 161 8.0 18.0 0.00 0.00 0.00 40 1005.5
20260901174550 69 109 5.0 17.0 0.00 0.00 0.00 40 1005.6
20260901173046 68 115 8.0 14.0 0.00 0.00 0.00 42 1005.9
20260901171546 67 149 5.0 14.0 0.00 0.00 0.00 44 1006.1
20260901170040 66 152 7.0 13.0 0.00 0.00 0.00 45 1006.3
20260901164538 64 163 3.0 16.0 0.00 0.00 0.00 47 1006.5
20260901163037 65 189 9.0 13.0 0.00 0.00 0.00 47 1006.4
20260901161539 64 105 6.0 14.0 0.00 0.00 0.00 49 1006.8
20260901160047 63 156 9.0 14.0 0.00 0.00 0.00 50 1007.1
20260901154526 62 164 6.0 11.0 0.00 0.00 0.00 52 1007.3
20260901153024 61 108 3.0 10.0 0.00 0.00 0.00 54 1007.5
20260901151520 60 131 1.0 8.0 0.00 0.00 0.00 56 1007.6
20260901150015 59 133 5.0 13.0 0.00 0.00 0.00 58 1008.0
20260901144513 57 148 2.0 8.0 0.00 0.00 0.00 61 1008.1
20260901143007 54 146 2.0 8.0 0.00 0.00 0.00 68 1008.3
20260901141506 52 327 0.0 2.0 0.00 0.00 0.00 70 1008.4
20260901140002 51 334 1.0 2.0 0.00 0.00 0.00 69 1008.3
20260901134621 51 334 0.0 3.0 0.00 0.00 0.00 69 1008.4
20260901133055 50 51 0.0 2.0 0.00 0.00 0.00 70 1008.6
20260901131553 49 9 0.0 2.0 0.00 0.00 0.00 70 1008.8
20260901130057 48 9 0.0 3.0 0.00 0.00 0.00 70 1008.9
20260901124558 48 14 0.0 1.0 0.00 0.00 0.00 69 1009.0
20260901123049 49 11 0.0 2.0 0.00 0.00 0.00 69 1009.2
20260901121553 49 65 0.0 1.0 0.00 0.00 0.00 63 1009.3
20260901120056 48 127 0.0 2.0 0.00 0.00 0.00 65 1009.7
20260901114542 47 10 0.0 2.0 0.00 0.00 0.00 64 1009.8
20260901113104 45 11 0.0 2.0 0.00 0.00 0.00 64 1010.1
20260901111538 43 32 0.0 2.0 0.00 0.00 0.00 62 1010.2
20260901110040 43 32 0.0 2.0 0.00 0.00 0.00 60 1010.2
20260901104536 42 32 0.0 2.0 0.00 0.00 0.00 60 1010.3
20260901103035 43 28 0.0 2.0 0.00 0.00 0.00 53 1010.4
20260901101547 41 133 0.0 1.0 0.00 0.00 0.00 58 1010.4
20260901100035 41 133 0.0 2.0 0.00 0.00 0.00 54 1010.4
20260901094532 41 133 0.0 2.0 0.00 0.00 0.00 54 1010.4
20260901093033 41 132 0.0 0.0 0.00 0.00 0.00 53 1010.1
20260901091528 42 132 0.0 0.0 0.00 0.00 0.00 51 1010.1
20260901090022 44 132 0.0 1.0 0.00 0.00 0.00 50 1010.2
20260901084528 45 132 0.0 1.0 0.00 0.00 0.00 47 1010.2
20260901083018 45 132 0.0 1.0 0.00 0.00 0.00 45 1010.3
20260901081516 45 132 0.0 0.0 0.00 0.00 0.00 45 1010.4
20260901080014 46 132 0.0 1.0 0.00 0.00 0.00 44 1010.6
20260901074512 45 132 0.0 1.0 0.00 0.00 0.00 44 1010.8
20260901073011 45 145 0.0 3.0 0.00 0.00 0.00 44 1010.8
20260901071511 46 148 0.0 1.0 0.00 0.00 0.00 44 1010.8
20260901070010 46 148 0.0 0.0 0.00 0.00 0.00 45 1010.8
20260901064507 47 148 0.0 1.0 0.00 0.00 0.00 42 1010.8
20260901063012 47 148 0.0 0.0 0.00 0.00 0.00 41 1010.7
20260901061505 47 148 0.0 2.0 0.00 0.00 0.00 41 1010.9
20260901060001 48 126 0.0 0.0 0.00 0.00 0.00 40 1010.8
20260901054502 49 126 0.0 0.0 0.00 0.00 0.00 39 1010.8
20260901053003 50 126 1.0 3.0 0.00 0.00 0.00 37 1011.0
20260901051608 50 86 0.0 1.0 0.00 0.00 0.00 36 1011.2
20260901044627 51 101 0.0 1.0 0.00 0.00 0.00 36 1011.1
20260901043106 52 100 0.0 1.0 0.00 0.00 0.00 34 1011.0
20260901041559 53 94 0.0 1.0 0.00 0.00 0.00 32 1010.9
20260901040058 55 101 0.0 2.0 0.00 0.00 0.00 30 1010.7
20260901034605 57 360 0.0 1.0 0.00 0.00 0.00 30 1010.6
20260901033058 58 55 0.0 2.0 0.00 0.00 0.00 27 1010.5
20260901031559 59 121 0.0 2.0 0.00 0.00 0.00 26 1010.4
20260901030057 59 117 1.0 2.0 0.00 0.00 0.00 27 1010.4
20260901024603 60 61 0.0 1.0 0.00 0.00 0.00 26 1010.2
20260901023055 62 59 0.0 2.0 0.00 0.00 0.00 25 1010.0
20260901021619 64 57 0.0 2.0 0.00 0.00 0.00 24 1010.1
20260901020111 67 340 0.0 1.0 0.00 0.00 0.00 21 1010.1
20260901014558 71 340 0.0 1.0 0.00 0.00 0.00 20 1010.2
20260901013104 72 340 0.0 3.0 0.00 0.00 0.00 17 1010.2
20260901011553 73 296 0.0 1.0 0.00 0.00 0.00 17 1010.3
20260901010051 73 299 0.0 1.0 0.00 0.00 0.00 17 1010.5
20260901004550 73 232 0.0 4.0 0.00 0.00 0.00 17 1010.6
20260901003052 74 312 2.0 4.0 0.00 0.00 0.00 17 1010.5
20260901001603 73 202 0.0 4.0 0.00 0.00 0.00 17 1010.8
20260901000052 74 317 0.0 4.0 0.00 0.00 0.00 19 1011.0
20260831234600 74 234 1.0 6.0 0.00 0.00 0.00 17 1010.9
20260831233049 74 236 1.0 5.0 0.00 0.00 0.00 16 1010.8
20260831231545 75 192 1.0 3.0 0.00 0.00 0.00 17 1010.9
20260831230043 75 238 1.0 4.0 0.00 0.00 0.00 16 1011.1
20260831224542 75 253 1.0 4.0 0.00 0.00 0.00 15 1011.3
20260831223041 75 155 1.0 5.0 0.00 0.00 0.00 14 1011.5
20260831221541 75 171 1.0 6.0 0.00 0.00 0.00 15 1011.7
20260831220043 76 240 1.0 5.0 0.00 0.00 0.00 13 1011.9
20260831214538 75 176 1.0 3.0 0.00 0.00 0.00 14 1012.0
20260831213038 76 212 2.0 7.0 0.00 0.00 0.00 15 1012.2
20260831211534 75 284 1.0 4.0 0.00 0.00 0.00 15 1012.4
20260831210031 76 194 0.0 5.0 0.00 0.00 0.00 15 1012.7
20260831204527 74 242 1.0 5.0 0.00 0.00 0.00 13 1012.8
20260831203025 73 196 2.0 7.0 0.00 0.00 0.00 14 1012.9
20260831201530 74 240 2.0 6.0 0.00 0.00 0.00 13 1013.1
20260831200024 73 222 1.0 4.0 0.00 0.00 0.00 12 1013.3
20260831194532 73 300 1.0 3.0 0.00 0.00 0.00 15 1013.4
20260831193024 73 315 1.0 6.0 0.00 0.00 0.00 15 1013.6